DODECAPOLE 2

导读 | 豆包AI

DODECAPOLE 2是美国于1965年8月13日08:00发射的科学卫星,目前仍保持在轨运行。该卫星轨道近地点833公里、远地点884公里,轨道周期约102分钟,倾角90.06°,属于近地极轨卫星。作为美国早期空间探索任务的组成部分,它为冷战时期美国空间技术发展积累了宝贵轨道数据,至今仍在轨道上留存,是人类早期航天活动的见证。

基本信息
目录编号:
1510
目录名称:
DODECAPOLE 2
国际标识:
1965-065C
轨道中心:
EARTH
卫星名称:
DODECAPOLE 2
卫星全名:
--
卫星状态:
在轨 (已飞行22128 天)
发射日期:
1965-08-13 UTC
国别 :
美国 (US)
星等 :
--
轨道信息
数据来源 国际轨道数据
星历时间: 2026-03-13T15:24:09+0800
19小时前
查看轨道信息
半长轴: 7235.583km
偏心率: 0.0038412
轨道倾角: 90.065°
近地点辐角 127.260°
升交点赤经 24.301°
平近点角 233.210°
近地点: 829.652km
远地点: 885.24km
周期: 102.087分钟
每日圈数: 14.105632
详细信息
使用方式:
暂无
2D轨道图
3D轨道图
轨道高度分析图
轨道倾角分析图
轨道综合分析图
查看轨道综合分析图